User: anonymous   Login
Location: Unspecified
(0.0000°N, 0.0000°E)
Time: 02:05:24
(UTC+00:00)
Language:

SENTINEL 2B - Orbit

View from above orbital plane
View from above orbital plane
View from above satellite
View from above satellite

Ground track
Ground track

The orbit data is extracted from the following two-line orbital elements,

1 42063U 17013A   19046.74597045  .00000003  00000-0  17707-4 0  9997
2 42063  98.5678 122.9711 0001179  82.9374 277.1942 14.30818908101639
Epoch (UTC): 15 February 2019 17:54:11
Eccentricity: 0.0001179
inclination: 98.5678°
perigee height: 788 km
apogee height: 790 km
right ascension of ascending node: 122.9711°
argument of perigee: 82.9374°
revolutions per day: 14.30818908
mean anomaly at epoch: 277.1942°
orbit number at epoch: 10163

The dashed part of the orbit path shows where the satellite is in the earth's shadow,  

DLR